Change the Weather History Date:

Wednesday, February 6, 2013

  Actual Average Record
Temperature  
Mean Temperature 30 °F -  
Max Temperature 39 °F 36 °F 57 °F (1963)
Min Temperature 15 °F 9 °F -26 °F (1989)
Degree Days  
Heating Degree Days 35    
Moisture  
Dew Point 20 °F    
Average Humidity 69    
Maximum Humidity 88    
Minimum Humidity 46    
Precipitation  
Precipitation 0.00 in - - ()
Sea Level Pressure  
Sea Level Pressure 29.95 in    
Wind  
Wind Speed 5 mph (NW)    
Max Wind Speed 17 mph    
Max Gust Speed 24 mph    
Visibility 10 miles    
Events      
Averages and records for this station are not official NWS values.
T = Trace of Precipitation, MM = Missing Value Source: NWS Daily Summary

Daily Weather History Graph

Daily Weather History Graph

Search for Another Location

Airport or City:

Trip Planner

Search our weather history database for the weather conditions in past years. The results will help you decide how hot, cold, wet, or windy it might be!

Date:

Astronomy

Feb. 06, 2013 Rise Set
Actual Time 7:27 AM MST 5:58 PM MST
Civil Twilight 7:00 AM MST 6:25 PM MST
Nautical Twilight 6:29 AM MST 6:56 PM MST
Astronomical Twilight 5:58 AM MST 7:27 PM MST
Moon 4:12 AM MST (2/6) 2:22 PM MST (2/6)
Length of Visible Light 11h 25m
Length of Day
10h 30m
Waning Crescent, 16% of the Moon is Illuminated
Feb 6
Waning Crescent
Feb 10
New
Feb 17
First Quarter
Feb 25
Full
Mar 4
Last Quarter

Hourly Weather History & Observations

Time (MST) Temp. Windchill Dew Point Humidity Pressure Visibility Wind Dir Wind Speed Gust Speed Precip Events Conditions
12:53 AM 24.1 °F - 19.0 °F 81% 29.90 in 10.0 mi Calm Calm - N/A   Overcast
1:53 AM 28.0 °F - 21.0 °F 75% 29.86 in 10.0 mi Calm Calm - 0.00 in   Overcast
2:53 AM 25.0 °F 20.7 °F 19.9 °F 81% 29.87 in 10.0 mi SW 3.5 mph - N/A   Clear
3:53 AM 24.1 °F - 19.0 °F 81% 29.86 in 10.0 mi Calm Calm - N/A   Partly Cloudy
4:53 AM 24.1 °F 18.2 °F 19.0 °F 81% 29.85 in 10.0 mi SW 4.6 mph - N/A   Scattered Clouds
5:53 AM 23.0 °F 13.9 °F 18.0 °F 81% 29.88 in 10.0 mi SW 8.1 mph - N/A   Partly Cloudy
6:53 AM 27.0 °F - 18.0 °F 69% 29.88 in 10.0 mi Calm Calm - N/A   Overcast
7:53 AM 25.0 °F 20.7 °F 18.0 °F 75% 29.95 in 10.0 mi NNW 3.5 mph - N/A   Overcast
8:53 AM 27.0 °F - 19.0 °F 72% 29.96 in 10.0 mi Calm Calm - N/A   Mostly Cloudy
9:53 AM 33.1 °F - 21.0 °F 61% 29.96 in 10.0 mi Calm Calm - N/A   Clear
10:53 AM 39.0 °F 31.8 °F 19.9 °F 46% 29.93 in 10.0 mi WNW 11.5 mph - N/A   Clear
11:53 AM 39.0 °F 31.8 °F 21.0 °F 49% 29.92 in 10.0 mi NNW 11.5 mph - N/A   Clear
12:53 PM 39.9 °F 34.5 °F 21.0 °F 47% 29.90 in 10.0 mi NW 8.1 mph - N/A   Clear
1:53 PM 39.9 °F 32.9 °F 21.9 °F 49% 29.88 in 10.0 mi NW 11.5 mph - N/A   Scattered Clouds
2:53 PM 37.0 °F 27.4 °F 25.0 °F 62% 29.92 in 10.0 mi NNE 17.3 mph 24.2 mph N/A   Mostly Cloudy
3:53 PM 36.0 °F 26.7 °F 25.0 °F 64% 29.95 in 10.0 mi NNE 15.0 mph - N/A   Mostly Cloudy
4:53 PM 34.0 °F 25.5 °F 26.1 °F 73% 29.99 in 10.0 mi NNE 11.5 mph - N/A   Overcast
5:53 PM 32.0 °F 23.6 °F 23.0 °F 69% 30.02 in 10.0 mi NNW 10.4 mph - N/A   Partly Cloudy
6:53 PM 30.0 °F 20.5 °F 21.0 °F 69% 30.03 in 10.0 mi NNW 11.5 mph - N/A   Clear
7:53 PM 28.0 °F 18.6 °F 21.0 °F 75% 30.06 in 10.0 mi NW 10.4 mph - N/A   Clear
9:53 PM 25.0 °F 18.1 °F 17.1 °F 72% 30.08 in 10.0 mi WNW 5.8 mph - N/A   Clear
10:53 PM 21.9 °F 11.7 °F 16.0 °F 78% 30.06 in 10.0 mi NNW 9.2 mph - N/A   Clear
11:53 PM 15.1 °F 7.7 °F 12.0 °F 88% 30.11 in 10.0 mi NNW 4.6 mph - N/A   Clear